Location: Nelson
(41.2830°S, 173.2830°E)
Time: 05:53:51
(UTC+12:00)

Cosmos 2151 - Pass Details

Date: 14 May 2021
Orbit: 580 x 602 km, 82.5° (Epoch: 17 June)

Event Time Altitude Azimuth Distance (km) Brightness Sun altitude
Rises 18:57:24 0° 1° (N) 2,794 6.5 -18.5°
Reaches altitude 10° 18:59:35 10° 4° (N) 1,903 5.6 -18.9°
Maximum altitude 19:03:45 65° 85° (E) 652 2.8 -19.7°
Enters shadow 19:05:40 31° 157° (SSE) 1,055 4.0 -20.0°
